Location: Unspecified
(0.0000°N, 0.0000°E)
Time: 09:19:48
(UTC+00:00)

Explorer 11/Cluster Stage 4 - Pass Details

Date: 18 July 2020
Orbit: 467 x 1259 km, 28.8° (Epoch: 03 August)

Event Time Altitude Azimuth Distance (km) Brightness Sun altitude
Rises 04:39:57 0° 240° (WSW) 2,757 - -20.1°
Reaches altitude 10° 04:42:22 10° 240° (WSW) 1,769 - -19.5°
Exits shadow 04:45:31 53° 242° (WSW) 608 5.6 -18.8°
Maximum altitude 04:46:21 88° 324° (NW) 487 5.4 -18.6°
Drops below altitude 10° 04:49:57 10° 59° (ENE) 1,607 9.5 -17.8°
Sets 04:52:04 0° 59° (ENE) 2,477 10.8 -17.3°
